This demonstration page uses our WeatherBlox Daily Observations layout. Learn more.

Hourly Observations for October 19, 2016

Temp ( °F °C ) Dew Point ( °F °C ) Humidity (%) Winds ( mph kmh ) Pressure ( in mb ) Visibility ( mi km ) Precip ( " mm )
12:15 am 00:15 Cloudy 53 11.7 36 2 52 52 E 6 9 30.03 1017 7 11.265408 0 0
12:35 am 00:35 Hazy 54 12 35 1.8 50 50 E 7 11 30.03 1017 4 6.437376 0 0
12:55 am 00:55 Hazy 53 11.9 36 2.2 52 52 E 7 11 30.03 1017 5 8.04672 0 0
1:15 am 01:15 Hazy 52 11.1 37 2.5 56 56 E 5 7 30.03 1017 5 8.04672 0 0
1:35 am 01:35 Partly Cloudy 52 11.3 37 2.8 56 56 ESE 7 11 30.03 1017 7 11.265408 0 0
1:55 am 01:55 Mostly Cloudy with Haze 53 11.4 37 2.8 56 56 ESE 6 9 30.06 1018 5 8.04672 0 0
2:15 am 02:15 Cloudy 51 10.8 37 2.9 58 58 ESE 6 9 30.06 1018 7 11.265408 0 0
2:35 am 02:35 Mostly Cloudy 52 11 37 2.9 58 58 Calm 30.06 1018 7 11.265408 0 0
2:55 am 02:55 Mostly Cloudy 51 10.5 37 3 60 60 ESE 6 9 30.06 1018 10 16.09344 0 0
3:15 am 03:15 Mostly Cloudy 51 10.5 38 3.4 62 62 ESE 8 13 30.06 1018 10 16.09344 0 0
3:35 am 03:35 Mostly Cloudy 51 10.8 38 3.6 61 61 E 9 15 30.06 1018 10 16.09344 0 0
3:55 am 03:55 Hazy 52 11 39 4 62 62 ESE 9 15 30.06 1018 5 8.04672 0 0
4:15 am 04:15 Hazy 51 10.4 39 4 65 65 ESE 8 13 30.06 1018 4 6.437376 0 0
4:35 am 04:35 Hazy 49 9.4 39 4 69 69 ESE 7 11 30.09 1019 5 8.04672 0 0
4:55 am 04:55 Hazy 48 9.1 40 4.2 72 72 ESE 7 11 30.09 1019 5 8.04672 0 0
5:15 am 05:15 Clear 48 9 40 4.2 72 72 ESE 8 13 30.09 1019 7 11.265408 0 0
5:35 am 05:35 Hazy 49 9.2 40 4.5 73 73 ESE 7 11 30.09 1019 5 8.04672 0 0
5:55 am 05:55 Hazy 49 9.4 40 4.5 72 72 E 6 9 30.09 1019 5 8.04672 0 0
6:15 am 06:15 Mostly Cloudy 49 9.6 40 4.6 71 71 E 6 9 30.12 1020 7 11.265408 0 0
6:35 am 06:35 Cloudy 49 9.5 40 4.7 72 72 SE 5 7 30.12 1020 10 16.09344 0 0
6:55 am 06:55 Cloudy 49 9.4 40 4.7 73 73 SSE 3 6 30.12 1020 10 16.09344 0 0
7:15 am 07:15 Cloudy 49 9.3 40 4.7 73 73 Calm 30.12 1020 10 16.09344 0 0
7:35 am 07:35 Cloudy 48 9 41 4.9 76 76 Calm 30.12 1020 10 16.09344 0 0
7:55 am 07:55 Cloudy 48 9.1 41 5 76 76 NW 5 7 30.15 1021 10 16.09344 0 0
8:15 am 08:15 Cloudy 48 8.9 41 5 77 77 N 3 6 30.15 1021 10 16.09344 0 0
8:35 am 08:35 Cloudy 49 9.3 41 5.1 75 75 N 6 9 30.15 1021 10 16.09344 0 0
8:55 am 08:55 Cloudy 50 10 42 5.5 74 74 NNW 9 15 30.15 1021 10 16.09344 0 0
9:15 am 09:15 Cloudy 51 10.6 42 5.4 70 70 NNW 9 15 30.12 1020 10 16.09344 0 0
9:35 am 09:35 Cloudy 52 11.3 42 5.4 67 67 NNW 8 13 30.12 1020 10 16.09344 0 0
9:55 am 09:55 Mostly Cloudy 55 12.6 42 5.7 63 63 N 7 11 30.15 1021 10 16.09344 0 0
10:15 am 10:15 Mostly Cloudy 56 13.4 42 5.8 60 60 N 5 7 30.15 1021 10 16.09344 0 0
10:35 am 10:35 Mostly Cloudy 58 14.4 42 5.6 56 56 N 8 13 30.12 1020 10 16.09344 0 0
10:55 am 10:55 Mostly Cloudy 60 15.6 42 5.5 51 51 N 9 15 30.12 1020 10 16.09344 0 0
11:15 am 11:15 Partly Cloudy 61 16.1 41 4.9 48 48 NNE 12 19 30.09 1019 10 16.09344 0 0
11:35 am 11:35 Partly Cloudy 61 16.3 41 5.2 48 48 NE 10 17 30.12 1020 10 16.09344 0 0
11:55 am 11:55 Mostly Cloudy 62 16.5 41 5 47 47 NNE 8 13 30.12 1020 10 16.09344 0 0
12:15 pm 12:15 Partly Cloudy 61 16.1 40 4.7 47 47 N 13 20 30.12 1020 10 16.09344 0 0
12:35 pm 12:35 Partly Cloudy 60 15.8 40 4.7 48 48 N 9 15 30.12 1020 10 16.09344 0 0
12:55 pm 12:55 Mostly Cloudy 61 16.3 41 4.9 47 47 N 9 15 30.12 1020 10 16.09344 0 0
1:15 pm 13:15 Mostly Cloudy 63 17.2 40 4.6 43 43 NNE 12 19 30.12 1020 10 16.09344 0 0
1:35 pm 13:35 Mostly Cloudy 62 16.4 40 4.4 45 45 N 13 20 30.12 1020 10 16.09344 0 0
1:55 pm 13:55 Mostly Cloudy 62 16.8 40 4.2 43 43 N 10 17 30.09 1019 10 16.09344 0 0
2:15 pm 14:15 Partly Cloudy 64 18 40 4.7 42 42 NNE 13 20 30.06 1018 10 16.09344 0 0
2:35 pm 14:35 Partly Cloudy 64 17.7 40 4.4 42 42 NNE 14 22 30.06 1018 10 16.09344 0 0
2:55 pm 14:55 Partly Cloudy 64 17.8 40 4.5 42 42 NNE 13 20 30.06 1018 10 16.09344 0 0
3:15 pm 15:15 Partly Cloudy 64 18 40 4.4 41 41 NNE 8 13 30.06 1018 10 16.09344 0 0
3:35 pm 15:35 Mostly Cloudy 64 17.7 39 4 40 40 NNE 12 19 30.06 1018 10 16.09344 0 0
3:55 pm 15:55 Mostly Cloudy 62 16.7 40 4.5 45 45 N 10 17 30.09 1019 10 16.09344 0 0
4:15 pm 16:15 Mostly Cloudy 63 17 40 4.4 43 43 NNE 13 20 30.09 1019 10 16.09344 0 0
4:35 pm 16:35 Mostly Cloudy 63 17.3 39 4.1 42 42 NE 12 19 30.06 1018 10 16.09344 0 0
4:55 pm 16:55 Mostly Cloudy 62 16.9 38 3.5 41 41 NE 12 19 30.09 1019 10 16.09344 0 0
5:15 pm 17:15 Mostly Cloudy 62 16.5 39 3.7 43 43 NE 12 19 30.09 1019 10 16.09344 0 0
5:35 pm 17:35 Cloudy 62 16.9 39 3.7 42 42 NE 13 20 30.09 1019 10 16.09344 0 0
5:55 pm 17:55 Mostly Cloudy 60 15.8 39 3.8 45 45 ENE 13 20 30.12 1020 10 16.09344 0 0
6:15 pm 18:15 Mostly Cloudy 59 14.9 39 3.8 48 48 NE 8 13 30.12 1020 7 11.265408 0 0
6:35 pm 18:35 Cloudy 58 14.5 39 4 50 50 NE 8 13 30.15 1021 10 16.09344 0 0
6:55 pm 18:55 Cloudy 58 14.2 40 4.2 51 51 N 7 11 30.18 1022 10 16.09344 0 0
7:15 pm 19:15 Cloudy 57 13.7 41 5 56 56 N 8 13 30.18 1022 10 16.09344 0 0
7:35 pm 19:35 Cloudy with Rain 51 10.5 45 7.3 81 81 N 9 15 30.24 1024 5 8.04672 0.06 1.524
7:55 pm 19:55 Partly Cloudy 50 10 46 7.7 86 86 N 8 13 30.24 1024 10 16.09344 0.08 2.032
8:15 pm 20:15 Mostly Cloudy 50 10.1 46 7.8 86 86 NE 9 15 30.24 1024 10 16.09344 0 0
8:35 pm 20:35 Partly Cloudy 49 9.6 46 7.5 87 87 NE 5 7 30.24 1024 10 16.09344 0 0
8:55 pm 20:55 Clear 49 9.3 45 7.4 88 88 ENE 5 7 30.24 1024 10 16.09344 0 0
9:15 pm 21:15 Clear 47 8.2 44 6.4 89 89 ENE 5 7 30.3 1026 10 16.09344 0 0
9:35 pm 21:35 Clear 46 7.6 43 6.2 91 91 NE 7 11 30.3 1026 10 16.09344 0 0
9:55 pm 21:55 Clear 45 7.4 43 6.1 92 92 NNE 5 7 30.3 1026 10 16.09344 0 0
10:15 pm 22:15 Clear 45 7.2 43 6.2 93 93 N 3 6 30.3 1026 10 16.09344 0 0
10:35 pm 22:35 Clear 46 7.5 44 6.4 93 93 N 7 11 30.3 1026 10 16.09344 0 0
10:55 pm 22:55 Clear 44 6.9 42 5.7 92 92 NNE 7 11 30.3 1026 10 16.09344 0 0
11:15 pm 23:15 Clear 44 6.5 42 5.5 93 93 N 6 9 30.3 1026 10 16.09344 0 0
11:35 pm 23:35 Clear 44 6.5 42 5.5 93 93 NNW 3 6 30.33 1027 10 16.09344 0 0
11:55 pm 23:55 Clear 43 6 41 5 93 93 NNW 5 7 30.33 1027 10 16.09344 0 0

Powered by AerisWeather